Location: Unspecified
(0.0000°N, 0.0000°E)
Time: 19:38:04
(UTC+00:00)

CZ-3C DEB - Pass Details

Date: 10 March 2026
Orbit: 1497 x 35067 km, 20.3° (Epoch: 12 June)

Event Time Altitude Azimuth Distance (km) Brightness Sun altitude
Rises 23:34:36 0° 276° (W) 13,500 ? -80.1°
Reaches altitude 10° 23:44:01 10° 273° (W) 14,654 ? -82.2°
Maximum altitude 09:22:45 72° 334° (NNW) 2,867 ? 48.0°
Drops below altitude 10° 09:31:37 10° 59° (ENE) 3,900 ? 50.2°
Sets 09:33:46 0° 62° (ENE) 4,692 ? 50.7°
